SAS681 EKCH-LIRF

Flight info

Callsign SAS681
Flight time 2h 18m
Altitude 35000
Route SALLO M44 KOGIM M602 USEDU DCT ADLIR/N0442F370 DCT OSKAN DCT MAREM DCT APRAQ DCT NIPEL DCT GIRDA/N0441F380 DCT BAXON/N0441F370 DCT UNUMU DCT ETPOK DCT RITEB
Aircraft A320/M-SDE3FGHIJ1RWXYZ/ALB1

Departure

Time 2026-05-04 13:11
Airport Copenhagen Kastrup Airport (EKCH)

Arrival

Time 2026-05-04 15:30
Airport Rome–Fiumicino Leonardo da Vinci International Airport (LIRF)
Time Latitude Longitude Altitude Speed Heading
2026-05-04 12:42 55.62855 12.64258 17 ft 0 kts 100°
2026-05-04 13:00 55.62858 12.64234 17 ft 4 kts 100°
2026-05-04 13:01 55.62861 12.64197 18 ft 4 kts 88°
2026-05-04 13:01 55.62854 12.64155 19 ft 3 kts 65°
2026-05-04 13:01 55.62845 12.64119 19 ft 4 kts 66°
2026-05-04 13:01 55.62834 12.64075 20 ft 4 kts 66°
2026-05-04 13:02 55.62825 12.64038 19 ft 2 kts 66°
2026-05-04 13:02 55.62813 12.64000 19 ft 4 kts 41°
2026-05-04 13:02 55.62794 12.63976 18 ft 2 kts 33°
2026-05-04 13:02 55.62778 12.63948 21 ft 4 kts 87°
2026-05-04 13:03 55.62784 12.63907 18 ft 3 kts 115°
2026-05-04 13:03 55.62792 12.63879 19 ft 0 kts 116°
2026-05-04 13:06 55.62791 12.63882 18 ft 1 kts 116°
2026-05-04 13:06 55.62784 12.63905 17 ft 3 kts 116°
2026-05-04 13:06 55.62765 12.63940 18 ft 5 kts 161°
2026-05-04 13:06 55.62732 12.63912 19 ft 7 kts 212°
2026-05-04 13:07 55.62687 12.63860 18 ft 9 kts 212°
2026-05-04 13:07 55.62643 12.63860 19 ft 5 kts 130°
2026-05-04 13:07 55.62626 12.63920 18 ft 6 kts 118°
2026-05-04 13:07 55.62598 12.63996 17 ft 8 kts 123°
2026-05-04 13:08 55.62562 12.64092 17 ft 11 kts 123°
2026-05-04 13:08 55.62517 12.64212 17 ft 13 kts 123°
2026-05-04 13:08 55.62463 12.64352 18 ft 15 kts 127°
2026-05-04 13:08 55.62406 12.64449 17 ft 10 kts 161°
2026-05-04 13:09 55.62328 12.64422 17 ft 13 kts 195°
2026-05-04 13:09 55.62231 12.64372 15 ft 17 kts 200°
2026-05-04 13:09 55.62119 12.64279 17 ft 18 kts 205°
2026-05-04 13:09 55.61997 12.64176 17 ft 20 kts 206°
2026-05-04 13:10 55.61878 12.64079 17 ft 15 kts 198°
2026-05-04 13:10 55.61781 12.64077 17 ft 15 kts 176°
2026-05-04 13:10 55.61672 12.64089 21 ft 15 kts 176°
2026-05-04 13:10 55.61579 12.64007 21 ft 19 kts 223°
2026-05-04 13:11 55.61352 12.63651 20 ft 77 kts 221°
2026-05-04 13:11 55.60796 12.62789 18 ft 133 kts 221°
2026-05-04 13:11 55.60000 12.61551 165 ft 161 kts 222°
2026-05-04 13:11 55.59153 12.60246 788 ft 162 kts 222°
2026-05-04 13:12 55.58285 12.58937 1397 ft 167 kts 222°
2026-05-04 13:12 55.57380 12.57614 2005 ft 169 kts 220°
2026-05-04 13:12 55.56456 12.56298 2622 ft 174 kts 220°
2026-05-04 13:12 55.55471 12.54932 3179 ft 186 kts 218°
2026-05-04 13:13 55.54307 12.53728 3642 ft 209 kts 196°
2026-05-04 13:13 55.52788 12.53964 4203 ft 238 kts 168°
2026-05-04 13:13 55.51312 12.55511 5022 ft 255 kts 151°
2026-05-04 13:13 55.49906 12.57450 5889 ft 259 kts 150°
2026-05-04 13:14 55.48491 12.59451 6723 ft 263 kts 149°
2026-05-04 13:14 55.47058 12.61488 7553 ft 266 kts 149°
2026-05-04 13:14 55.45604 12.63555 8366 ft 270 kts 149°
2026-05-04 13:14 55.44135 12.65643 9153 ft 273 kts 149°
2026-05-04 13:15 55.42666 12.67724 9915 ft 276 kts 149°
2026-05-04 13:15 55.41131 12.69886 10355 ft 293 kts 149°
2026-05-04 13:15 55.39469 12.72204 10563 ft 316 kts 149°
2026-05-04 13:15 55.37718 12.74655 11069 ft 326 kts 148°
2026-05-04 13:16 55.35935 12.77170 11734 ft 331 kts 148°
2026-05-04 13:16 55.34134 12.79718 12394 ft 334 kts 148°
2026-05-04 13:16 55.32313 12.82286 13057 ft 337 kts 148°
2026-05-04 13:16 55.30473 12.84880 13703 ft 341 kts 148°
2026-05-04 13:17 55.28640 12.87457 14328 ft 344 kts 148°
2026-05-04 13:17 55.26762 12.90089 14938 ft 347 kts 148°
2026-05-04 13:17 55.24866 12.92741 15526 ft 350 kts 148°
2026-05-04 13:17 55.22952 12.95413 16106 ft 353 kts 148°
2026-05-04 13:18 55.21019 12.98105 16683 ft 357 kts 148°
2026-05-04 13:18 55.19066 13.00821 17295 ft 360 kts 148°
2026-05-04 13:18 55.17096 13.03560 17917 ft 363 kts 148°
2026-05-04 13:18 55.15107 13.06326 18550 ft 367 kts 148°
2026-05-04 13:19 55.13125 13.09075 19195 ft 371 kts 148°
2026-05-04 13:19 55.11095 13.11886 19848 ft 374 kts 148°
2026-05-04 13:19 55.09042 13.14723 20516 ft 378 kts 148°
2026-05-04 13:19 55.06967 13.17584 21152 ft 382 kts 148°
2026-05-04 13:20 55.04871 13.20472 21765 ft 386 kts 147°
2026-05-04 13:20 55.02759 13.23382 22360 ft 389 kts 147°
2026-05-04 13:20 55.00623 13.26321 22947 ft 393 kts 147°
2026-05-04 13:20 54.98466 13.29283 23520 ft 396 kts 147°
2026-05-04 13:21 54.96320 13.32225 24084 ft 400 kts 147°
2026-05-04 13:21 54.94109 13.35185 24624 ft 401 kts 151°
2026-05-04 13:21 54.91697 13.37579 25155 ft 398 kts 161°
2026-05-04 13:21 54.89105 13.39182 25666 ft 395 kts 171°
2026-05-04 13:22 54.86408 13.40033 26166 ft 395 kts 175°
2026-05-04 13:22 54.83679 13.40751 26660 ft 398 kts 175°
2026-05-04 13:22 54.80929 13.41485 27134 ft 401 kts 175°
2026-05-04 13:22 54.78197 13.42219 27591 ft 404 kts 175°
2026-05-04 13:23 54.75407 13.42973 28036 ft 407 kts 175°
2026-05-04 13:23 54.72597 13.43734 28467 ft 410 kts 175°
2026-05-04 13:23 54.69768 13.44497 28881 ft 413 kts 175°
2026-05-04 13:23 54.66920 13.45262 29273 ft 416 kts 175°
2026-05-04 13:24 54.64052 13.46030 29650 ft 418 kts 175°
2026-05-04 13:24 54.61167 13.46796 30033 ft 420 kts 175°
2026-05-04 13:24 54.58283 13.47562 30531 ft 419 kts 175°
2026-05-04 13:25 54.52583 13.49086 31488 ft 417 kts 175°
2026-05-04 13:25 54.49722 13.49848 31955 ft 416 kts 175°
2026-05-04 13:25 54.46865 13.50588 32416 ft 415 kts 175°
2026-05-04 13:25 54.44014 13.51306 32868 ft 414 kts 175°
2026-05-04 13:26 54.41169 13.52015 33307 ft 413 kts 176°
2026-05-04 13:26 54.38331 13.52719 33744 ft 412 kts 176°
2026-05-04 13:26 54.35503 13.53426 34183 ft 411 kts 175°
2026-05-04 13:26 54.32713 13.54267 34610 ft 413 kts 169°
2026-05-04 13:27 54.29977 13.55861 34891 ft 420 kts 160°
2026-05-04 13:27 54.27342 13.58089 34953 ft 425 kts 158°
2026-05-04 13:27 54.22037 13.62655 34951 ft 428 kts 158°
2026-05-04 13:28 54.16714 13.67206 34954 ft 428 kts 158°
2026-05-04 13:28 54.11436 13.71762 34952 ft 430 kts 154°
2026-05-04 13:29 54.06728 13.78219 34953 ft 440 kts 141°
2026-05-04 13:29 54.02300 13.85396 34958 ft 440 kts 142°
2026-05-04 13:30 53.97608 13.91782 34959 ft 429 kts 156°
2026-05-04 13:30 53.94899 13.93803 34959 ft 422 kts 167°
2026-05-04 13:30 53.92061 13.94913 34958 ft 416 kts 177°
2026-05-04 13:31 53.86361 13.94596 34954 ft 409 kts 191°
2026-05-04 13:31 53.80712 13.93296 34953 ft 410 kts 190°
2026-05-04 13:32 53.75093 13.92024 34955 ft 410 kts 191°
2026-05-04 13:32 53.69435 13.90738 34957 ft 410 kts 191°
2026-05-04 13:33 53.63774 13.89453 34958 ft 410 kts 191°
2026-05-04 13:33 53.58111 13.88174 34960 ft 410 kts 190°
2026-05-04 13:34 53.52490 13.86904 34961 ft 410 kts 190°
2026-05-04 13:34 53.46830 13.85632 34961 ft 410 kts 190°
2026-05-04 13:35 53.38339 13.83729 34961 ft 410 kts 191°
2026-05-04 13:36 53.32680 13.82460 34962 ft 411 kts 190°
2026-05-04 13:36 53.27052 13.81200 34963 ft 411 kts 190°
2026-05-04 13:37 53.21388 13.79941 34964 ft 411 kts 190°
2026-05-04 13:37 53.15725 13.78679 34964 ft 411 kts 190°
2026-05-04 13:38 53.10100 13.77432 34964 ft 410 kts 190°
2026-05-04 13:38 53.04437 13.76186 34964 ft 410 kts 190°
2026-05-04 13:39 52.98776 13.74943 34963 ft 410 kts 190°
2026-05-04 13:39 52.93113 13.73698 34964 ft 411 kts 190°
2026-05-04 13:40 52.87486 13.72465 34964 ft 411 kts 190°
2026-05-04 13:40 52.81823 13.71221 34965 ft 411 kts 190°
2026-05-04 13:41 52.76157 13.69985 34965 ft 411 kts 190°
2026-05-04 13:41 52.70491 13.68759 34965 ft 411 kts 190°
2026-05-04 13:42 52.62031 13.66935 34965 ft 411 kts 190°
2026-05-04 13:42 52.56366 13.65710 34965 ft 410 kts 190°
2026-05-04 13:43 52.50704 13.64487 34964 ft 410 kts 190°
2026-05-04 13:43 52.45081 13.63277 34963 ft 410 kts 190°
2026-05-04 13:44 52.39408 13.62202 34961 ft 412 kts 184°
2026-05-04 13:44 52.33664 13.62237 34961 ft 413 kts 183°
2026-05-04 13:45 52.27912 13.62273 34963 ft 413 kts 183°
2026-05-04 13:45 52.22198 13.62305 34962 ft 413 kts 183°
2026-05-04 13:46 52.16443 13.62338 34963 ft 414 kts 183°
2026-05-04 13:46 52.10684 13.62374 34966 ft 414 kts 183°
2026-05-04 13:47 52.04928 13.62401 34966 ft 414 kts 183°
2026-05-04 13:47 51.99209 13.62435 34967 ft 414 kts 183°
2026-05-04 13:48 51.93488 13.62479 34967 ft 414 kts 183°
2026-05-04 13:48 51.87728 13.62519 34967 ft 414 kts 183°
2026-05-04 13:49 51.82014 13.62544 34966 ft 413 kts 183°
2026-05-04 13:49 51.76260 13.62574 34966 ft 414 kts 183°
2026-05-04 13:50 51.70506 13.62616 34966 ft 414 kts 183°
2026-05-04 13:50 51.64749 13.62654 34967 ft 414 kts 183°
2026-05-04 13:51 51.59035 13.62689 34966 ft 413 kts 183°
2026-05-04 13:51 51.53282 13.62719 34966 ft 413 kts 183°
2026-05-04 13:52 51.44652 13.62767 34965 ft 413 kts 183°
2026-05-04 13:53 51.38903 13.62777 34965 ft 413 kts 183°
2026-05-04 13:53 51.33191 13.62788 34965 ft 413 kts 183°
2026-05-04 13:54 51.24570 13.62795 34963 ft 413 kts 183°
2026-05-04 13:55 51.15949 13.62803 34962 ft 413 kts 183°
2026-05-04 13:55 51.07375 13.62828 34960 ft 413 kts 183°
2026-05-04 13:56 51.01630 13.62847 34960 ft 413 kts 183°
2026-05-04 13:57 50.93020 13.62852 34959 ft 412 kts 183°
2026-05-04 13:58 50.81582 13.62856 34955 ft 412 kts 183°
2026-05-04 13:58 50.72976 13.62933 34960 ft 414 kts 179°
2026-05-04 13:59 50.67310 13.64869 34954 ft 420 kts 168°
2026-05-04 14:00 50.58941 13.68829 34953 ft 421 kts 168°
2026-05-04 14:00 50.50534 13.72786 34950 ft 421 kts 168°
2026-05-04 14:01 50.44920 13.75420 34952 ft 421 kts 168°
2026-05-04 14:02 50.36538 13.79317 34956 ft 421 kts 168°
2026-05-04 14:02 50.30922 13.81935 34957 ft 421 kts 168°
2026-05-04 14:03 50.25306 13.84554 34960 ft 421 kts 168°
2026-05-04 14:03 50.19725 13.87144 34961 ft 421 kts 168°
2026-05-04 14:04 50.11294 13.91039 34964 ft 421 kts 168°
2026-05-04 14:04 50.05674 13.93628 34963 ft 421 kts 168°
2026-05-04 14:05 49.97288 13.97469 34961 ft 421 kts 168°
2026-05-04 14:06 49.91672 14.00045 34961 ft 421 kts 168°
2026-05-04 14:06 49.86056 14.02612 34962 ft 421 kts 168°
2026-05-04 14:07 49.80440 14.05164 34961 ft 420 kts 168°
2026-05-04 14:07 49.74828 14.07712 34958 ft 420 kts 168°
2026-05-04 14:08 49.69252 14.10235 34959 ft 420 kts 168°
2026-05-04 14:08 49.63580 14.12114 34955 ft 413 kts 180°
2026-05-04 14:09 49.54990 14.11946 34957 ft 412 kts 184°
2026-05-04 14:10 49.46437 14.11697 34957 ft 412 kts 184°
2026-05-04 14:10 49.40706 14.11527 34960 ft 412 kts 184°
2026-05-04 14:11 49.34973 14.11349 34964 ft 412 kts 184°
2026-05-04 14:11 49.26375 14.11079 34962 ft 412 kts 184°
2026-05-04 14:12 49.20687 14.10915 34962 ft 412 kts 184°
2026-05-04 14:13 49.12095 14.10679 34960 ft 412 kts 184°
2026-05-04 14:13 49.06371 14.10496 34961 ft 411 kts 185°
2026-05-04 14:14 49.00646 14.10318 34959 ft 412 kts 184°
2026-05-04 14:14 48.92086 14.10075 34963 ft 412 kts 184°
2026-05-04 14:15 48.80613 14.09743 34966 ft 412 kts 184°
2026-05-04 14:16 48.72052 14.09483 34967 ft 412 kts 184°
2026-05-04 14:17 48.63458 14.09239 34964 ft 412 kts 184°
2026-05-04 14:18 48.54866 14.08987 34964 ft 412 kts 185°
2026-05-04 14:19 48.43455 14.08658 34962 ft 411 kts 184°
2026-05-04 14:19 48.37729 14.08492 34962 ft 412 kts 184°
2026-05-04 14:20 48.32003 14.08333 34962 ft 411 kts 184°
2026-05-04 14:20 48.26317 14.08178 34962 ft 411 kts 184°
2026-05-04 14:21 48.17737 14.07931 34960 ft 411 kts 184°
2026-05-04 14:21 48.12014 14.07760 34960 ft 411 kts 184°
2026-05-04 14:22 48.06296 14.07593 34962 ft 411 kts 184°
2026-05-04 14:22 48.00610 14.07437 34960 ft 411 kts 184°
2026-05-04 14:23 47.92030 14.07195 34960 ft 411 kts 184°
2026-05-04 14:24 47.86310 14.07028 34957 ft 411 kts 184°
2026-05-04 14:24 47.80589 14.06871 34954 ft 411 kts 184°
2026-05-04 14:25 47.74909 14.06710 34960 ft 411 kts 184°
2026-05-04 14:25 47.66334 14.06469 34954 ft 411 kts 184°
2026-05-04 14:26 47.60617 14.06313 34951 ft 411 kts 184°
2026-05-04 14:26 47.54938 14.06156 34956 ft 411 kts 184°
2026-05-04 14:27 47.49221 14.05986 34952 ft 411 kts 184°
2026-05-04 14:27 47.43507 14.05833 34950 ft 411 kts 184°
2026-05-04 14:28 47.37789 14.05679 34949 ft 411 kts 184°
2026-05-04 14:28 47.32115 14.05524 34950 ft 411 kts 184°
2026-05-04 14:29 47.20691 14.05198 34949 ft 411 kts 185°
2026-05-04 14:30 47.14982 14.05046 34948 ft 410 kts 184°
2026-05-04 14:31 47.06459 14.04813 34944 ft 410 kts 184°
2026-05-04 14:32 46.95045 14.04495 34949 ft 410 kts 184°
2026-05-04 14:32 46.89336 14.04348 34949 ft 410 kts 184°
2026-05-04 14:33 46.83668 14.04185 34951 ft 410 kts 184°
2026-05-04 14:33 46.77961 14.04026 34947 ft 410 kts 184°
2026-05-04 14:34 46.72249 14.03884 34947 ft 410 kts 184°
2026-05-04 14:34 46.66536 14.03733 34952 ft 410 kts 185°
2026-05-04 14:35 46.60864 14.03577 34952 ft 411 kts 184°
2026-05-04 14:35 46.55151 14.03425 34952 ft 411 kts 184°
2026-05-04 14:36 46.49438 14.03272 34955 ft 411 kts 183°
2026-05-04 14:36 46.43709 14.03785 34955 ft 413 kts 180°
2026-05-04 14:37 46.38020 14.04375 34959 ft 413 kts 180°
2026-05-04 14:37 46.32290 14.04955 34957 ft 413 kts 180°
2026-05-04 14:38 46.26560 14.05523 34959 ft 413 kts 180°
2026-05-04 14:38 46.20827 14.06092 34959 ft 413 kts 180°
2026-05-04 14:39 46.15130 14.06669 34956 ft 413 kts 180°
2026-05-04 14:39 46.10364 14.07157 34955 ft 413 kts 180°
2026-05-04 14:40 46.01758 14.08023 34961 ft 413 kts 180°
2026-05-04 14:40 45.95090 14.08684 34962 ft 413 kts 180°
2026-05-04 14:41 45.89354 14.09255 34961 ft 413 kts 180°
2026-05-04 14:42 45.77931 14.10394 34960 ft 413 kts 180°
2026-05-04 14:42 45.73133 14.10875 34961 ft 413 kts 180°
2026-05-04 14:43 45.67440 14.11440 34959 ft 413 kts 180°
2026-05-04 14:43 45.60742 14.12094 34960 ft 413 kts 180°
2026-05-04 14:44 45.55049 14.12655 34960 ft 413 kts 180°
2026-05-04 14:44 45.49326 14.12978 34958 ft 409 kts 188°
2026-05-04 14:45 45.44765 14.11529 34955 ft 403 kts 203°
2026-05-04 14:45 45.39652 14.08272 34954 ft 402 kts 206°
2026-05-04 14:46 45.34548 14.04997 34955 ft 403 kts 206°
2026-05-04 14:46 45.29434 14.01724 34953 ft 403 kts 206°
2026-05-04 14:47 45.24360 13.98473 34954 ft 403 kts 206°
2026-05-04 14:47 45.19254 13.95195 34955 ft 403 kts 206°
2026-05-04 14:48 45.14144 13.91924 34956 ft 403 kts 206°
2026-05-04 14:48 45.09033 13.88663 34955 ft 403 kts 206°
2026-05-04 14:49 45.03952 13.85434 34957 ft 403 kts 205°
2026-05-04 14:49 44.98837 13.82199 34961 ft 403 kts 205°
2026-05-04 14:50 44.93717 13.78960 34959 ft 403 kts 206°
2026-05-04 14:50 44.88640 13.75742 34962 ft 403 kts 205°
2026-05-04 14:51 44.83527 13.72514 34962 ft 403 kts 205°
2026-05-04 14:51 44.78458 13.69323 34962 ft 403 kts 205°
2026-05-04 14:52 44.73477 13.66185 34963 ft 403 kts 205°
2026-05-04 14:52 44.68441 13.63020 34958 ft 403 kts 205°
2026-05-04 14:53 44.63560 13.59966 34958 ft 403 kts 205°
2026-05-04 14:53 44.59644 13.57518 34959 ft 403 kts 205°
2026-05-04 14:54 44.54673 13.54410 34960 ft 403 kts 205°
2026-05-04 14:54 44.49642 13.51273 34961 ft 403 kts 205°
2026-05-04 14:55 44.44550 13.48103 34962 ft 403 kts 205°
2026-05-04 14:55 44.39457 13.44829 34962 ft 402 kts 208°
2026-05-04 14:56 44.34537 13.41101 34963 ft 402 kts 210°
2026-05-04 14:56 44.29671 13.37240 34964 ft 402 kts 210°
2026-05-04 14:57 44.24803 13.33475 34966 ft 403 kts 210°
2026-05-04 14:57 44.19877 13.29753 34967 ft 403 kts 209°
2026-05-04 14:58 44.14943 13.26042 34968 ft 403 kts 209°
2026-05-04 14:58 44.10016 13.22328 34969 ft 403 kts 210°
2026-05-04 14:59 44.05118 13.18647 34969 ft 403 kts 209°
2026-05-04 15:00 43.97722 13.13117 34967 ft 402 kts 209°
2026-05-04 15:00 43.92798 13.09412 34967 ft 402 kts 210°
2026-05-04 15:01 43.85444 13.03897 34967 ft 402 kts 209°
2026-05-04 15:01 43.80514 13.00223 34967 ft 402 kts 209°
2026-05-04 15:02 43.75579 12.96567 34966 ft 402 kts 209°
2026-05-04 15:02 43.70641 12.92910 34967 ft 403 kts 209°
2026-05-04 15:03 43.65741 12.89279 34967 ft 402 kts 209°
2026-05-04 15:03 43.60812 12.85627 34963 ft 402 kts 209°
2026-05-04 15:04 43.55882 12.81978 34963 ft 402 kts 209°
2026-05-04 15:04 43.50951 12.78340 34964 ft 402 kts 209°
2026-05-04 15:05 43.46047 12.74740 34964 ft 402 kts 209°
2026-05-04 15:05 43.43574 12.72929 34834 ft 403 kts 209°
2026-05-04 15:05 43.41105 12.71089 34128 ft 407 kts 210°
2026-05-04 15:06 43.38648 12.69111 33236 ft 412 kts 212°
2026-05-04 15:06 43.36222 12.67040 32697 ft 408 kts 213°
2026-05-04 15:06 43.33841 12.64959 32177 ft 404 kts 213°
2026-05-04 15:07 43.29135 12.60867 31101 ft 397 kts 213°
2026-05-04 15:07 43.26795 12.58873 30560 ft 394 kts 212°
2026-05-04 15:07 43.24504 12.56942 30043 ft 390 kts 212°
2026-05-04 15:07 43.22199 12.55010 29506 ft 386 kts 212°
2026-05-04 15:08 43.19915 12.53102 28987 ft 383 kts 212°
2026-05-04 15:08 43.17649 12.51208 28470 ft 380 kts 212°
2026-05-04 15:08 43.15406 12.49333 27966 ft 376 kts 212°
2026-05-04 15:08 43.13185 12.47475 27466 ft 372 kts 212°
2026-05-04 15:09 43.10985 12.45634 26985 ft 369 kts 212°
2026-05-04 15:09 43.08809 12.43814 26518 ft 365 kts 212°
2026-05-04 15:09 43.06653 12.42011 26075 ft 361 kts 212°
2026-05-04 15:10 43.02453 12.38507 25951 ft 355 kts 212°
2026-05-04 15:10 43.00346 12.36747 25951 ft 355 kts 212°
2026-05-04 15:10 42.96128 12.33229 25953 ft 355 kts 212°
2026-05-04 15:11 42.94019 12.31475 25953 ft 355 kts 212°
2026-05-04 15:11 42.91908 12.29721 25951 ft 355 kts 212°
2026-05-04 15:11 42.89802 12.27974 25838 ft 353 kts 212°
2026-05-04 15:11 42.87709 12.26241 25430 ft 350 kts 212°
2026-05-04 15:12 42.85634 12.24524 25020 ft 348 kts 212°
2026-05-04 15:12 42.83600 12.22843 24621 ft 345 kts 212°
2026-05-04 15:12 42.81553 12.21150 24204 ft 343 kts 212°
2026-05-04 15:12 42.79522 12.19466 23791 ft 341 kts 212°
2026-05-04 15:13 42.77470 12.17875 23387 ft 339 kts 206°
2026-05-04 15:13 42.75240 12.16851 22980 ft 339 kts 194°
2026-05-04 15:13 42.72913 12.16516 22804 ft 333 kts 186°
2026-05-04 15:13 42.70627 12.16652 22683 ft 327 kts 175°
2026-05-04 15:14 42.68455 12.17541 22420 ft 328 kts 161°
2026-05-04 15:14 42.66456 12.19057 22044 ft 329 kts 156°
2026-05-04 15:14 42.64518 12.20615 21658 ft 327 kts 156°
2026-05-04 15:14 42.62567 12.22184 21271 ft 325 kts 156°
2026-05-04 15:15 42.60626 12.23742 20886 ft 323 kts 156°
2026-05-04 15:15 42.58699 12.25294 20504 ft 321 kts 156°
2026-05-04 15:15 42.56782 12.26830 20111 ft 319 kts 156°
2026-05-04 15:16 42.52980 12.29861 19389 ft 315 kts 156°
2026-05-04 15:16 42.51093 12.31360 19023 ft 313 kts 156°
2026-05-04 15:16 42.47341 12.34158 18264 ft 301 kts 168°
2026-05-04 15:17 42.45346 12.34625 17607 ft 286 kts 187°
2026-05-04 15:17 42.41634 12.33174 16523 ft 276 kts 204°
2026-05-04 15:17 42.39850 12.32229 16020 ft 274 kts 204°
2026-05-04 15:18 42.38080 12.31299 15526 ft 272 kts 204°
2026-05-04 15:18 42.36324 12.30380 15048 ft 269 kts 204°
2026-05-04 15:18 42.34586 12.29467 14490 ft 266 kts 204°
2026-05-04 15:19 42.31189 12.27688 13256 ft 261 kts 204°
2026-05-04 15:19 42.29504 12.26806 12631 ft 258 kts 204°
2026-05-04 15:19 42.26186 12.25069 11423 ft 253 kts 204°
2026-05-04 15:20 42.24553 12.24214 10808 ft 250 kts 204°
2026-05-04 15:20 42.22963 12.23383 10519 ft 236 kts 204°
2026-05-04 15:20 42.21491 12.22620 10381 ft 218 kts 204°
2026-05-04 15:20 42.20093 12.21893 9936 ft 214 kts 204°
2026-05-04 15:21 42.18712 12.21171 9490 ft 212 kts 204°
2026-05-04 15:21 42.17364 12.20465 9032 ft 210 kts 204°
2026-05-04 15:21 42.14623 12.19240 8035 ft 209 kts 190°
2026-05-04 15:22 42.13161 12.19190 7513 ft 210 kts 187°
2026-05-04 15:22 42.11705 12.19170 7029 ft 208 kts 187°
2026-05-04 15:22 42.08821 12.19134 5985 ft 207 kts 187°
2026-05-04 15:23 42.07390 12.19116 5487 ft 205 kts 187°
2026-05-04 15:23 42.05975 12.19097 4999 ft 203 kts 187°
2026-05-04 15:23 42.04572 12.19078 4494 ft 201 kts 187°
2026-05-04 15:23 42.03196 12.19056 3981 ft 200 kts 187°
2026-05-04 15:24 42.00475 12.19492 3268 ft 194 kts 172°
2026-05-04 15:24 41.98016 12.20519 2762 ft 177 kts 172°
2026-05-04 15:25 41.96875 12.21000 2556 ft 166 kts 172°
2026-05-04 15:25 41.95796 12.21454 2319 ft 159 kts 172°
2026-05-04 15:25 41.94777 12.21883 2107 ft 147 kts 172°
2026-05-04 15:26 41.92945 12.22650 1749 ft 136 kts 172°
2026-05-04 15:26 41.92042 12.23027 1560 ft 136 kts 171°
2026-05-04 15:26 41.90232 12.23785 1189 ft 137 kts 169°
2026-05-04 15:27 41.89312 12.24167 1015 ft 139 kts 169°
2026-05-04 15:27 41.87454 12.24948 641 ft 141 kts 166°
2026-05-04 15:28 41.85607 12.25738 280 ft 140 kts 165°
2026-05-04 15:28 41.84676 12.26124 102 ft 140 kts 166°
2026-05-04 15:28 41.83044 12.26801 12 ft 83 kts 163°
2026-05-04 15:29 41.82556 12.27006 12 ft 68 kts 162°
2026-05-04 15:30 41.81713 12.27047 12 ft 22 kts 179°
2026-05-04 15:30 41.81202 12.27249 12 ft 27 kts 162°
2026-05-04 15:31 41.80903 12.27349 12 ft 20 kts 184°
2026-05-04 15:31 41.80771 12.27321 13 ft 16 kts 190°
2026-05-04 15:32 41.80579 12.26945 13 ft 22 kts 249°
2026-05-04 15:32 41.80464 12.26529 15 ft 26 kts 250°
2026-05-04 15:33 41.80363 12.26160 15 ft 14 kts 249°
2026-05-04 15:34 41.80241 12.25722 16 ft 17 kts 250°
2026-05-04 15:34 41.80211 12.25610 15 ft 6 kts 250°
2026-05-04 15:34 41.80166 12.25444 14 ft 12 kts 249°
2026-05-04 15:35 41.80065 12.25338 14 ft 12 kts 199°
2026-05-04 15:35 41.80005 12.25387 14 ft 13 kts 114°
2026-05-04 15:35 41.79973 12.25479 14 ft 6 kts 122°
2026-05-04 15:36 41.79900 12.25456 14 ft 9 kts 205°
2026-05-04 15:36 41.79835 12.25416 16 ft 12 kts 205°
2026-05-04 15:36 41.79763 12.25372 14 ft 7 kts 201°
2026-05-04 15:37 41.79719 12.25386 15 ft 8 kts 146°
2026-05-04 15:37 41.79697 12.25419 14 ft 4 kts 122°
2026-05-04 15:37 41.79684 12.25453 14 ft 3 kts 115°
2026-05-04 15:37 41.79682 12.25459 14 ft 0 kts 115°